20050705,000025,531130,30.421683,-124.006858,19.616,33.561,0.139,0.102
20050705,000054,531160,30.421796,-124.006872,19.615,33.560,0.139,0.127
20050705,000125,531191,30.421940,-124.006927,19.615,33.557,0.139,0.139
20050705,000155,531221,30.422090,-124.006958,19.614,33.561,0.139,0.140
20050705,000225,531250,30.422251,-124.007037,19.613,33.559,0.139,0.146
20050705,000255,531280,30.422421,-124.007073,19.610,33.561,0.139,0.152
20050705,000325,531311,30.422586,-124.007048,19.610,33.558,0.139,0.141
20050705,000355,531341,30.422733,-124.007022,19.607,33.559,0.133,0.105
20050705,000425,531371,30.422858,-124.006965,19.608,33.558,0.139,0.110
20050705,000455,531401,30.422993,-124.006950,19.607,33.558,0.133,0.105
20050705,000525,531430,30.423103,-124.006930,19.606,33.557,0.133,0.106
20050705,000555,531460,30.423216,-124.006943,19.606,33.556,0.139,0.112
20050705,000625,531491,30.423303,-124.006923,19.604,33.556,0.139,0.113
20050705,000655,531521,30.423386,-124.006937,19.603,33.555,0.139,0.114
20050705,000725,531551,30.423493,-124.006908,19.599,33.558,0.139,0.139
20050705,000755,531581,30.423590,-124.006835,19.599,33.558,0.139,0.143
20050705,000825,531610,30.423693,-124.006820,19.601,33.551,0.139,0.140
20050705,000855,531640,30.423881,-124.006777,19.604,33.551,0.139,0.140
20050705,000925,531671,30.424156,-124.006813,19.601,33.555,0.145,0.151
20050705,000955,531701,30.424485,-124.006885,19.597,33.558,0.139,0.148
20050705,001025,531731,30.424831,-124.006928,19.596,33.555,0.133,0.139
20050705,001055,531760,30.425105,-124.007010,19.598,33.553,0.139,0.110
20050705,001125,531790,30.425385,-124.007097,19.600,33.555,0.133,0.107
20050705,001155,531821,30.425650,-124.007230,19.599,33.552,0.139,0.124
20050705,001225,531851,30.425873,-124.007310,19.593,33.555,0.133,0.122
20050705,001255,531881,30.426096,-124.007408,19.593,33.555,0.139,0.138
20050705,001325,531911,30.426325,-124.007477,19.585,33.555,0.139,0.124
20050705,001355,531940,30.426553,-124.007527,19.583,33.552,0.139,0.109
20050705,001426,531972,30.426738,-124.007595,19.579,33.553,0.139,0.104
20050705,001455,532001,30.426891,-124.007678,19.575,33.552,0.139,0.103
20050705,001525,532031,30.427040,-124.007767,19.572,33.551,0.139,0.103
20050705,001555,532061,30.427190,-124.007820,19.569,33.549,0.145,0.115
20050705,001626,532092,30.427308,-124.007855,19.569,33.547,0.139,0.104
20050705,001655,532120,30.427390,-124.007870,19.570,33.544,0.139,0.103
20050705,001725,532151,30.427476,-124.007930,19.565,33.548,0.139,0.101
20050705,001754,532180,30.427543,-124.007983,19.565,33.544,0.145,0.129
20050705,001825,532211,30.427581,-124.008037,19.566,33.543,0.139,0.138
20050705,001855,532241,30.427641,-124.008095,19.563,33.544,0.145,0.146
20050705,001925,532270,30.427758,-124.008135,19.564,33.542,0.145,0.149
20050705,001955,532300,30.427931,-124.008165,19.564,33.543,0.145,0.135
20050705,002025,532331,30.428165,-124.008223,19.564,33.542,0.139,0.132
20050705,002055,532361,30.428391,-124.008257,19.561,33.540,0.139,0.128
20050705,002125,532391,30.428588,-124.008282,19.560,33.546,0.139,0.125
20050705,002155,532421,30.428743,-124.008277,19.557,33.544,0.145,0.143
20050705,002225,532450,30.428870,-124.008297,19.558,33.543,0.139,0.140
20050705,002255,532480,30.428981,-124.008318,19.556,33.544,0.139,0.112
20050705,002325,532511,30.429096,-124.008375,19.553,33.541,0.133,0.102
20050705,002355,532541,30.429281,-124.008397,19.551,33.541,0.139,0.110
20050705,002426,532572,30.429503,-124.008437,19.554,33.538,0.133,0.125
20050705,002455,532600,30.429675,-124.008440,19.556,33.539,0.139,0.140
20050705,002526,532632,30.429801,-124.008483,19.556,33.539,0.145,0.125
20050705,002555,532661,30.429918,-124.008513,19.552,33.541,0.133,0.119
20050705,002625,532691,30.430046,-124.008555,19.544,33.544,0.139,0.140
20050705,002655,532721,30.430205,-124.008627,19.542,33.541,0.133,0.113
20050705,002726,532752,30.430395,-124.008677,19.546,33.542,0.139,0.115
20050705,002755,532780,30.430583,-124.008728,19.549,33.537,0.139,0.108
20050705,002825,532810,30.430751,-124.008757,19.543,33.542,0.133,0.098
20050705,002855,532841,30.430898,-124.008808,19.543,33.538,0.139,0.106
20050705,002926,532871,30.431091,-124.008848,19.545,33.538,0.145,0.123
20050705,002955,532901,30.431323,-124.008890,19.546,33.537,0.139,0.107
20050705,003025,532931,30.431470,-124.008913,19.548,33.535,0.139,0.105
20050705,003055,532960,30.431623,-124.008942,19.544,33.540,0.145,0.110
20050705,003125,532990,30.431820,-124.009002,19.542,33.539,0.145,0.110
20050705,003155,533021,30.432021,-124.009053,19.538,33.538,0.139,0.105
20050705,003226,533051,30.432200,-124.009077,19.532,33.540,0.150,0.117
20050705,003255,533081,30.432335,-124.009098,19.535,33.533,0.145,0.113
20050705,003325,533110,30.432483,-124.009067,19.540,33.535,0.145,0.109
20050705,003355,533140,30.432880,-124.008982,19.536,33.535,0.139,0.102
20050705,003425,533171,30.433446,-124.008875,19.534,33.536,0.145,0.106
20050705,003455,533201,30.433941,-124.008753,19.535,33.535,0.150,0.110
20050705,003525,533231,30.434453,-124.008665,19.536,33.533,0.139,0.097
20050705,003555,533261,30.435031,-124.008560,19.538,33.535,0.145,0.102
20050705,003625,533290,30.435450,-124.008085,19.535,33.535,0.150,0.107
20050705,003655,533320,30.435675,-124.007440,19.535,33.534,0.150,0.107
20050705,003725,533351,30.435985,-124.006732,19.537,33.535,0.145,0.101
20050705,003755,533381,30.436306,-124.006002,19.534,33.532,0.145,0.100
20050705,003826,533412,30.436645,-124.005237,19.528,33.537,0.156,0.111
20050705,003855,533441,30.437043,-124.004400,19.526,33.537,0.150,0.107
20050705,003925,533470,30.437428,-124.003473,19.526,33.533,0.156,0.116
20050705,003956,533502,30.437828,-124.002517,19.534,33.531,0.150,0.109
20050705,004025,533531,30.438278,-124.001600,19.536,33.535,0.156,0.115
20050705,004055,533561,30.438681,-124.000643,19.528,33.541,0.156,0.114
20050705,004126,533592,30.439113,-123.999693,19.526,33.540,0.150,0.111
20050705,004155,533620,30.439606,-123.998588,19.536,33.534,0.150,0.109
20050705,004225,533650,30.440143,-123.997373,19.556,33.526,0.150,0.111
20050705,004255,533681,30.440763,-123.996053,19.566,33.530,0.150,0.112
20050705,004325,533711,30.441335,-123.994743,19.569,33.535,0.145,0.108
20050705,004355,533741,30.441906,-123.993438,19.561,33.544,0.150,0.145
20050705,004425,533771,30.442498,-123.992146,19.554,33.546,0.150,0.120
20050705,004455,533800,30.443086,-123.990841,19.550,33.547,0.150,0.112
20050705,004525,533830,30.443688,-123.989530,19.548,33.546,0.145,0.105
20050705,004556,533861,30.444248,-123.988220,19.565,33.534,0.139,0.097
20050705,004626,533891,30.444825,-123.986886,19.574,33.536,0.145,0.102
20050705,004655,533921,30.445448,-123.985608,19.577,33.541,0.145,0.101
20050705,004726,533952,30.446025,-123.984298,19.581,33.544,0.145,0.100
20050705,004755,533980,30.446623,-123.982990,19.581,33.543,0.145,0.099
20050705,004826,534012,30.447253,-123.981658,19.587,33.540,0.156,0.109
20050705,004855,534041,30.447905,-123.980243,19.589,33.541,0.150,0.103
20050705,004925,534071,30.448578,-123.978806,19.593,33.541,0.156,0.109
20050705,004956,534102,30.449268,-123.977365,19.592,33.542,0.150,0.104
20050705,005025,534130,30.449921,-123.975918,19.587,33.543,0.156,0.110
20050705,005055,534160,30.450595,-123.974473,19.580,33.545,0.150,0.106
20050705,005126,534192,30.451280,-123.973023,19.574,33.543,0.156,0.113
20050705,005155,534221,30.451958,-123.971585,19.568,33.541,0.156,0.109
20050705,005226,534251,30.452625,-123.970126,19.563,33.538,0.150,0.122
20050705,005255,534281,30.453311,-123.968645,19.560,33.535,0.156,0.142
20050705,005326,534312,30.454005,-123.967195,19.564,33.531,0.150,0.113
20050705,005355,534340,30.454691,-123.965751,19.568,33.529,0.156,0.110
20050705,005425,534371,30.455358,-123.964306,19.567,33.530,0.145,0.102
20050705,005456,534401,30.456041,-123.962853,19.567,33.529,0.145,0.115
20050705,005526,534432,30.456716,-123.961376,19.570,33.527,0.145,0.102
20050705,005555,534460,30.457420,-123.959908,19.569,33.525,0.150,0.107
20050705,005625,534490,30.458093,-123.958441,19.562,33.519,0.150,0.109
20050705,005656,534522,30.458755,-123.956971,19.566,33.519,0.156,0.116
20050705,005725,534551,30.459440,-123.955515,19.570,33.512,0.145,0.104
20050705,005755,534581,30.460100,-123.954038,19.568,33.509,0.145,0.113
20050705,005825,534611,30.460793,-123.952580,19.572,33.509,0.145,0.104
20050705,005855,534640,30.461470,-123.951093,19.573,33.506,0.150,0.118
20050705,005925,534670,30.462145,-123.949633,19.570,33.506,0.145,0.115
20050705,005955,534701,30.462808,-123.948161,19.566,33.507,0.145,0.123
20050705,010025,534731,30.463446,-123.946740,19.562,33.505,0.145,0.126
20050705,010055,534761,30.464126,-123.945271,19.561,33.502,0.150,0.106
20050705,010126,534792,30.464793,-123.943801,19.556,33.504,0.145,0.101
20050705,010156,534822,30.465465,-123.942316,19.554,33.498,0.139,0.098
20050705,010225,534851,30.466140,-123.940828,19.550,33.496,0.139,0.097
20050705,010255,534881,30.466818,-123.939368,19.543,33.492,0.150,0.107
20050705,010325,534911,30.467511,-123.937881,19.537,33.490,0.145,0.103
20050705,010356,534942,30.468191,-123.936406,19.532,33.488,0.145,0.119
20050705,010425,534970,30.468858,-123.934935,19.526,33.485,0.145,0.136
20050705,010455,535000,30.469535,-123.933458,19.520,33.485,0.150,0.121
20050705,010526,535032,30.470238,-123.931948,19.516,33.483,0.150,0.125
20050705,010556,535061,30.470913,-123.930505,19.512,33.478,0.150,0.138
20050705,010626,535091,30.471620,-123.928956,19.511,33.472,0.145,0.102
20050705,010655,535121,30.472311,-123.927526,19.510,33.471,0.145,0.100
20050705,010726,535152,30.472996,-123.925991,19.510,33.470,0.145,0.097
20050705,010755,535180,30.473658,-123.924591,19.511,33.472,0.150,0.101
20050705,010826,535211,30.474345,-123.923096,19.510,33.473,0.156,0.106
20050705,010856,535241,30.475018,-123.921725,19.517,33.471,0.156,0.107
20050705,010926,535272,30.475720,-123.920191,19.526,33.464,0.156,0.107
20050705,010956,535302,30.476410,-123.918696,19.527,33.470,0.162,0.113
20050705,011026,535332,30.477098,-123.917211,19.528,33.472,0.156,0.111
20050705,011055,535361,30.477768,-123.915768,19.523,33.477,0.156,0.141
20050705,011126,535391,30.478488,-123.914231,19.515,33.480,0.162,0.158
20050705,011156,535421,30.479171,-123.912753,19.511,33.481,0.162,0.143
20050705,011226,535452,30.479818,-123.911331,19.514,33.471,0.162,0.120
20050705,011256,535482,30.480496,-123.909860,19.507,33.473,0.156,0.143
20050705,011326,535512,30.481188,-123.908333,19.507,33.470,0.150,0.108
20050705,011356,535542,30.481850,-123.906926,19.504,33.468,0.150,0.101
20050705,011426,535571,30.482548,-123.905410,19.504,33.464,0.156,0.106
20050705,011456,535601,30.483210,-123.903918,19.508,33.458,0.150,0.101
20050705,011526,535632,30.483878,-123.902448,19.508,33.455,0.156,0.107
20050705,011556,535662,30.484576,-123.900991,19.503,33.456,0.156,0.108
20050705,011626,535692,30.485265,-123.899505,19.496,33.455,0.156,0.121
20050705,011656,535721,30.485888,-123.898091,19.491,33.454,0.162,0.118
20050705,011726,535751,30.486575,-123.896585,19.487,33.447,0.162,0.122
20050705,011756,535782,30.487261,-123.895125,19.482,33.444,0.162,0.118
20050705,011826,535812,30.487918,-123.893691,19.480,33.440,0.162,0.119
20050705,011856,535842,30.488643,-123.892171,19.476,33.438,0.156,0.144
20050705,011926,535872,30.489321,-123.890698,19.471,33.439,0.156,0.119
20050705,011956,535901,30.489988,-123.889221,19.467,33.440,0.156,0.139
20050705,012026,535931,30.490673,-123.887748,19.467,33.433,0.150,0.129
20050705,012056,535962,30.491320,-123.886323,19.462,33.431,0.156,0.143
20050705,012127,535992,30.492023,-123.884841,19.459,33.427,0.162,0.118
20050705,012156,536022,30.492718,-123.883368,19.456,33.427,0.156,0.115
20050705,012226,536051,30.493395,-123.881888,19.452,33.424,0.156,0.110
20050705,012256,536081,30.494051,-123.880466,19.448,33.422,0.162,0.115
20050705,012327,536113,30.494770,-123.878950,19.443,33.421,0.156,0.109
20050705,012356,536142,30.495461,-123.877496,19.438,33.419,0.167,0.123
20050705,012426,536172,30.496128,-123.876008,19.434,33.414,0.167,0.134
20050705,012457,536203,30.496856,-123.874580,19.429,33.412,0.162,0.124
20050705,012527,536233,30.497526,-123.873131,19.421,33.409,0.162,0.115
20050705,012556,536261,30.498196,-123.871663,19.415,33.412,0.167,0.119
20050705,012627,536293,30.498898,-123.870198,19.412,33.406,0.156,0.107
20050705,012656,536322,30.499580,-123.868746,19.406,33.402,0.156,0.106
20050705,012727,536352,30.500265,-123.867308,19.400,33.401,0.167,0.116
20050705,012756,536382,30.500943,-123.865846,19.391,33.401,0.162,0.111
20050705,012826,536411,30.501610,-123.864415,19.382,33.397,0.167,0.117
20050705,012856,536441,30.502321,-123.862888,19.380,33.389,0.162,0.112
20050705,012926,536472,30.503031,-123.861435,19.374,33.384,0.162,0.113
20050705,012956,536502,30.503715,-123.859978,19.368,33.383,0.162,0.111
20050705,013026,536532,30.504370,-123.858506,19.357,33.380,0.167,0.115
20050705,013056,536561,30.505075,-123.857041,19.349,33.377,0.162,0.109
20050705,013127,536593,30.505788,-123.855581,19.346,33.369,0.162,0.109
20050705,013156,536622,30.506478,-123.854103,19.342,33.367,0.162,0.109
20050705,013226,536652,30.507166,-123.852696,19.331,33.365,0.162,0.109
20050705,013256,536682,30.507866,-123.851211,19.318,33.367,0.162,0.109
20050705,013326,536712,30.508551,-123.849761,19.312,33.363,0.162,0.110
20050705,013356,536741,30.509245,-123.848350,19.307,33.358,0.156,0.108
20050705,013426,536771,30.509968,-123.846806,19.299,33.355,0.167,0.118
20050705,013456,536802,30.510641,-123.845320,19.293,33.351,0.156,0.106
20050705,013527,536832,30.511331,-123.843845,19.287,33.349,0.162,0.111
20050705,013556,536862,30.512028,-123.842390,19.283,33.344,0.156,0.106
20050705,013627,536893,30.512725,-123.840910,19.282,33.341,0.162,0.112
20050705,013656,536921,30.513405,-123.839401,19.278,33.336,0.156,0.106
20050705,013726,536951,30.514110,-123.837913,19.275,33.332,0.156,0.105
20050705,013756,536982,30.514783,-123.836490,19.273,33.328,0.156,0.104
20050705,013826,537012,30.515511,-123.834956,19.273,33.324,0.162,0.108
20050705,013857,537043,30.516188,-123.833475,19.272,33.323,0.162,0.108
20050705,013926,537071,30.516878,-123.832006,19.271,33.322,0.150,0.097
20050705,013956,537101,30.517575,-123.830513,19.266,33.325,0.150,0.097
20050705,014027,537133,30.518295,-123.829038,19.264,33.322,0.156,0.102
20050705,014056,537162,30.518996,-123.827531,19.260,33.320,0.156,0.101
20050705,014126,537192,30.519660,-123.826083,19.255,33.320,0.162,0.106
20050705,014156,537222,30.520368,-123.824568,19.253,33.319,0.156,0.101
20050705,014226,537251,30.521065,-123.823071,19.253,33.315,0.162,0.107
20050705,014257,537283,30.521718,-123.821600,19.254,33.312,0.162,0.107
20050705,014326,537312,30.522405,-123.820143,19.254,33.313,0.150,0.097
20050705,014357,537342,30.523083,-123.818635,19.252,33.312,0.150,0.097
20050705,014427,537373,30.523781,-123.817123,19.251,33.313,0.156,0.102
20050705,014456,537401,30.524440,-123.815665,19.245,33.316,0.156,0.104
20050705,014526,537431,30.525146,-123.814121,19.237,33.316,0.156,0.117
20050705,014556,537462,30.525818,-123.812605,19.230,33.314,0.150,0.104
20050705,014627,537492,30.526511,-123.811105,19.226,33.316,0.156,0.103
20050705,014656,537522,30.527226,-123.809596,19.219,33.316,0.156,0.102
20050705,014726,537552,30.527888,-123.808083,19.216,33.315,0.156,0.101
20050705,014756,537581,30.528566,-123.806578,19.216,33.312,0.162,0.106
20050705,014826,537611,30.529253,-123.805073,19.213,33.310,0.156,0.101
20050705,014856,537642,30.529926,-123.803628,19.211,33.309,0.156,0.101
20050705,014926,537672,30.530616,-123.802061,19.210,33.307,0.162,0.106
20050705,014956,537702,30.531313,-123.800563,19.205,33.309,0.156,0.102
20050705,015026,537732,30.531980,-123.799028,19.202,33.314,0.162,0.111
20050705,015056,537761,30.532655,-123.797538,19.201,33.306,0.156,0.103
20050705,015126,537791,30.533326,-123.796018,19.202,33.303,0.156,0.102
20050705,015156,537822,30.533995,-123.794520,19.203,33.303,0.150,0.096
20050705,015226,537852,30.534671,-123.793025,19.201,33.305,0.156,0.100
20050705,015256,537882,30.535341,-123.791525,19.202,33.303,0.150,0.095
20050705,015326,537911,30.535996,-123.789993,19.202,33.304,0.156,0.100
20050705,015356,537941,30.536700,-123.788520,19.201,33.304,0.162,0.106
20050705,015427,537973,30.537386,-123.787006,19.195,33.308,0.156,0.101
20050705,015456,538002,30.538071,-123.785513,19.193,33.306,0.150,0.096
20050705,015526,538032,30.538745,-123.784030,19.191,33.307,0.162,0.106
20050705,015556,538062,30.539411,-123.782503,19.191,33.307,0.156,0.101
20050705,015626,538091,30.540060,-123.781063,19.191,33.306,0.156,0.100
20050705,015656,538121,30.540756,-123.779540,19.187,33.309,0.156,0.100
20050705,015726,538152,30.541445,-123.778048,19.184,33.311,0.156,0.100
20050705,015756,538182,30.542108,-123.776548,19.180,33.312,0.156,0.100
20050705,015827,538213,30.542776,-123.775058,19.176,33.308,0.156,0.099
20050705,015856,538242,30.543456,-123.773563,19.172,33.310,0.150,0.095
20050705,015927,538273,30.544131,-123.772080,19.168,33.308,0.145,0.091
20050705,015956,538301,30.544803,-123.770600,19.165,33.305,0.156,0.100
20050705,020027,538332,30.545510,-123.769128,19.159,33.306,0.156,0.100
20050705,020056,538362,30.546161,-123.767618,19.155,33.305,0.150,0.094
20050705,020127,538393,30.546848,-123.766156,19.152,33.302,0.162,0.103
20050705,020156,538421,30.547525,-123.764658,19.152,33.299,0.156,0.098
20050705,020226,538451,30.548230,-123.763180,19.154,33.290,0.156,0.099
20050705,020256,538482,30.548913,-123.761676,19.153,33.290,0.156,0.099
20050705,020326,538512,30.549581,-123.760196,19.152,33.289,0.162,0.103
20050705,020356,538542,30.550280,-123.758698,19.147,33.289,0.156,0.098
20050705,020426,538572,30.550986,-123.757216,19.146,33.289,0.150,0.093
20050705,020456,538601,30.551636,-123.755770,19.143,33.284,0.156,0.098
20050705,020526,538631,30.552371,-123.754241,19.147,33.279,0.150,0.093
20050705,020556,538662,30.553073,-123.752770,19.148,33.277,0.150,0.094
20050705,020626,538692,30.553750,-123.751285,19.141,33.280,0.150,0.095
20050705,020656,538722,30.554450,-123.749786,19.136,33.277,0.150,0.095
20050705,020727,538753,30.555153,-123.748316,19.137,33.273,0.150,0.096
20050705,020756,538781,30.555851,-123.746815,19.142,33.270,0.156,0.101
20050705,020826,538812,30.556540,-123.745323,19.146,33.266,0.150,0.096
20050705,020857,538842,30.557233,-123.743835,19.145,33.266,0.150,0.096
20050705,020926,538872,30.557936,-123.742380,19.144,33.267,0.156,0.101
20050705,020956,538902,30.558615,-123.740881,19.142,33.266,0.156,0.100
20050705,021026,538931,30.559316,-123.739398,19.138,33.267,0.150,0.095
20050705,021057,538963,30.560013,-123.737950,19.133,33.264,0.150,0.095
20050705,021126,538992,30.560693,-123.736458,19.132,33.262,0.150,0.101
20050705,021156,539022,30.561403,-123.734965,19.134,33.259,0.156,0.102
20050705,021226,539052,30.562091,-123.733456,19.135,33.259,0.156,0.101
20050705,021257,539083,30.562775,-123.731975,19.140,33.255,0.150,0.105
20050705,021326,539111,30.563453,-123.730486,19.141,33.257,0.150,0.112
20050705,021356,539141,30.564141,-123.729043,19.139,33.259,0.150,0.112
20050705,021426,539172,30.564811,-123.727558,19.141,33.256,0.150,0.098
20050705,021456,539202,30.565508,-123.726071,19.132,33.259,0.145,0.091
20050705,021527,539233,30.566180,-123.724603,19.132,33.256,0.150,0.101
20050705,021556,539261,30.566843,-123.723145,19.131,33.255,0.150,0.094
20050705,021626,539291,30.567541,-123.721646,19.136,33.252,0.150,0.095
20050705,021656,539322,30.568223,-123.720135,19.137,33.252,0.156,0.098
20050705,021726,539352,30.568915,-123.718655,19.137,33.253,0.150,0.093
20050705,021756,539382,30.569601,-123.717145,19.139,33.253,0.150,0.093
20050705,021826,539412,30.570286,-123.715638,19.138,33.252,0.150,0.093
20050705,021856,539441,30.570955,-123.714148,19.141,33.251,0.156,0.097
20050705,021926,539471,30.571620,-123.712678,19.142,33.251,0.150,0.093
20050705,021957,539503,30.572296,-123.711185,19.143,33.252,0.150,0.092
20050705,022026,539532,30.572975,-123.709706,19.140,33.255,0.156,0.097
20050705,022056,539562,30.573650,-123.708195,19.137,33.256,0.150,0.092
20050705,022127,539593,30.574335,-123.706670,19.133,33.257,0.150,0.092
20050705,022157,539623,30.575031,-123.705146,19.133,33.254,0.150,0.092
20050705,022226,539651,30.575715,-123.703645,19.131,33.255,0.150,0.092
20050705,022256,539682,30.576393,-123.702148,19.128,33.254,0.150,0.093
20050705,022327,539712,30.577071,-123.700631,19.127,33.252,0.150,0.093
20050705,022356,539742,30.577751,-123.699138,19.125,33.255,0.150,0.094
20050705,022426,539771,30.578440,-123.697648,19.120,33.255,0.150,0.096
20050705,022456,539801,30.579121,-123.696188,19.117,33.254,0.150,0.109
20050705,022526,539832,30.579796,-123.694681,19.115,33.253,0.150,0.108
20050705,022556,539862,30.580496,-123.693163,19.114,33.253,0.150,0.107
20050705,022627,539892,30.581191,-123.691655,19.110,33.256,0.150,0.097
20050705,022656,539922,30.581871,-123.690128,19.104,33.254,0.150,0.094
20050705,022726,539951,30.582583,-123.688635,19.100,33.255,0.156,0.110
20050705,022756,539981,30.583278,-123.687115,19.096,33.254,0.150,0.095
20050705,022826,540012,30.583943,-123.685586,19.096,33.249,0.150,0.095
20050705,022856,540042,30.584653,-123.684093,19.094,33.252,0.150,0.098
20050705,022927,540073,30.585311,-123.682593,19.089,33.253,0.150,0.105
20050705,022956,540101,30.586015,-123.681085,19.084,33.255,0.150,0.101
20050705,023026,540131,30.586718,-123.679566,19.077,33.257,0.150,0.093
20050705,023056,540162,30.587401,-123.678010,19.071,33.256,0.145,0.088
20050705,023126,540192,30.588085,-123.676520,19.064,33.254,0.150,0.092
20050705,023156,540222,30.588776,-123.675020,19.059,33.255,0.150,0.092
20050705,023226,540252,30.589436,-123.673530,19.052,33.252,0.156,0.097
20050705,023257,540283,30.590090,-123.672013,19.048,33.248,0.150,0.093
20050705,023326,540311,30.590795,-123.670530,19.043,33.249,0.150,0.093
20050705,023357,540343,30.591455,-123.669003,19.039,33.251,0.150,0.093
20050705,023426,540372,30.592135,-123.667498,19.033,33.247,0.156,0.097
20050705,023456,540402,30.592793,-123.666006,19.026,33.247,0.150,0.092
20050705,023526,540432,30.593473,-123.664508,19.025,33.244,0.156,0.097
20050705,023556,540461,30.594135,-123.663033,19.029,33.241,0.150,0.093
20050705,023626,540491,30.594786,-123.661558,19.027,33.240,0.150,0.094
20050705,023657,540522,30.595460,-123.660103,19.027,33.240,0.150,0.101
20050705,023726,540552,30.596101,-123.658621,19.028,33.239,0.150,0.102
20050705,023757,540583,30.596778,-123.657153,19.022,33.244,0.150,0.095
20050705,023826,540611,30.597448,-123.655695,19.011,33.245,0.150,0.093
20050705,023857,540643,30.598123,-123.654226,19.006,33.246,0.150,0.098
20050705,023927,540673,30.598798,-123.652696,18.998,33.244,0.156,0.101
20050705,023956,540702,30.599453,-123.651266,19.000,33.240,0.145,0.090
20050705,024026,540732,30.600131,-123.649805,18.997,33.240,0.145,0.088
20050705,024057,540763,30.600798,-123.648323,18.995,33.241,0.162,0.101
20050705,024127,540793,30.601475,-123.646840,18.986,33.241,0.156,0.097
20050705,024156,540821,30.602148,-123.645373,18.982,33.239,0.150,0.092
20050705,024227,540853,30.602841,-123.643850,18.976,33.236,0.145,0.087
20050705,024257,540882,30.603520,-123.642425,18.972,33.233,0.150,0.091
20050705,024327,540913,30.604216,-123.640873,18.966,33.238,0.156,0.097
20050705,024357,540943,30.604895,-123.639360,18.958,33.234,0.150,0.092
20050705,024426,540971,30.605561,-123.637905,18.952,33.232,0.150,0.092
20050705,024457,541003,30.606260,-123.636370,18.947,33.231,0.145,0.087
20050705,024526,541032,30.606911,-123.634938,18.944,33.228,0.145,0.087
20050705,024557,541062,30.607628,-123.633401,18.943,33.224,0.150,0.094
20050705,024627,541093,30.608291,-123.631946,18.938,33.224,0.150,0.092